Location: Daytona Beach
(29.2106°N, 81.0231°W)
Time: 09:31:39
(UTC-04:00)

XW-2F - Visible Passes

Search period start: 24 September 2021 00:00
Search period end: 04 October 2021 00:00
Orbit: 498 x 517 km, 97.5° (Epoch: 24 September)

Date Brightness Start Highest point End Pass type
(mag) Time Alt. Az. Time Alt. Az. Time Alt. Az.
24 Sep ? 06:48:52 10° NE 06:51:43 21° E 06:54:32 10° SSE visible
25 Sep ? 06:32:48 10° ENE 06:34:19 12° E 06:35:49 10° ESE visible
26 Sep ? 19:55:34 10° SW 19:57:27 13° W 19:59:20 10° WNW visible
27 Sep ? 19:37:02 10° SSW 19:40:03 23° W 19:43:04 10° NW visible
30 Sep ? 06:39:21 10° ENE 06:41:33 15° E 06:43:46 10° SE visible
01 Oct ? 20:03:56 10° WSW 20:04:41 10° W 20:05:26 10° W visible
02 Oct ? 19:44:36 10° SW 19:47:15 18° W 19:49:54 10° NW visible
03 Oct ? 19:26:30 10° SSW 19:29:51 31° W 19:33:13 10° NW visible
